When you browse on this site, cookies collect data to enhance your experience and personalize the content and advertising you see.
Visit our Privacy Policy to learn more. By continuing to use the site, you agree to this use of cookies and data.
  • In Schweiz
  • Länderverzeichnis
  • Für 7 Tage
  • Wassertemperatur
  • Wetterkarte
  • Widgets
  • user-avatar
    Anmelden

    Stündliche Wetter Winchester

    Heute, 2 Juni, Dienstag

    Zeit Temperatur Niederschläge Wind Luftdruck Luftfeuchtigkeit
    00:00 +13°C° 0 mm 2 m/S 760 mmHg 86%
    01:00 +13°C° 0 mm 2 m/S 760 mmHg 87%
    02:00 +12°C° 0 mm 2 m/S 760 mmHg 88%
    03:00 +11°C° 0 mm 3 m/S 760 mmHg 89%
    04:00 +11°C° 0 mm 3 m/S 760 mmHg 85%
    05:00 +12°C° 0 mm 3 m/S 760 mmHg 80%
    06:00 +13°C° 0 mm 3 m/S 760 mmHg 76%
    07:00 +14°C° 0 mm 3 m/S 760 mmHg 72%
    08:00 +17°C° 0 mm 3 m/S 760 mmHg 67%
    09:00 +18°C° 0 mm 4 m/S 760 mmHg 63%
    10:00 +20°C° 0 mm 3 m/S 760 mmHg 59%
    11:00 +21°C° 0 mm 3 m/S 759 mmHg 56%
    12:00 +22°C° 0 mm 3 m/S 759 mmHg 52%
    13:00 +22°C° 0 mm 3 m/S 759 mmHg 53%
    14:00 +22°C° 0 mm 3 m/S 758 mmHg 54%
    15:00 +22°C° 0 mm 3 m/S 758 mmHg 55%
    16:00 +21°C° 0 mm 3 m/S 757 mmHg 59%
    17:00 +21°C° 0 mm 3 m/S 757 mmHg 63%
    18:00 +20°C° 0 mm 2 m/S 756 mmHg 67%
    19:00 +18°C° 0 mm 2 m/S 756 mmHg 72%
    20:00 +16°C° 0 mm 1 m/S 756 mmHg 77%
    21:00 +14°C° 0 mm 1 m/S 755 mmHg 81%
    22:00 +14°C° 0 mm 1 m/S 755 mmHg 82%
    23:00 +13°C° 0 mm 0 m/S 755 mmHg 82%

    Morgen, 3 Juni, Mittwoch

    Zeit Temperatur Niederschläge Wind Luftdruck Luftfeuchtigkeit
    00:00 +13°C° 0 mm 0 m/S 754 mmHg 83%
    01:00 +14°C° 0.1 mm 1 m/S 754 mmHg 84%
    02:00 +14°C° 0.1 mm 1 m/S 753 mmHg 86%
    03:00 +15°C° 0.1 mm 1 m/S 752 mmHg 88%
    04:00 +15°C° 0.3 mm 1 m/S 752 mmHg 88%
    05:00 +15°C° 0.3 mm 1 m/S 751 mmHg 89%
    06:00 +15°C° 0.3 mm 1 m/S 751 mmHg 90%
    07:00 +15°C° 0.2 mm 1 m/S 751 mmHg 89%
    08:00 +15°C° 0.2 mm 1 m/S 751 mmHg 88%
    09:00 +16°C° 0.2 mm 1 m/S 750 mmHg 86%
    10:00 +16°C° 0.2 mm 2 m/S 750 mmHg 86%
    11:00 +16°C° 0.2 mm 2 m/S 750 mmHg 86%
    12:00 +16°C° 0.2 mm 2 m/S 750 mmHg 86%
    13:00 +14°C° 0.2 mm 3 m/S 750 mmHg 87%
    14:00 +14°C° 0.2 mm 3 m/S 749 mmHg 87%
    15:00 +14°C° 0.2 mm 4 m/S 749 mmHg 88%
    16:00 +14°C° 0.2 mm 4 m/S 749 mmHg 88%
    17:00 +13°C° 0.2 mm 4 m/S 749 mmHg 89%
    18:00 +13°C° 0.2 mm 4 m/S 749 mmHg 89%
    19:00 +12°C° 0 mm 4 m/S 749 mmHg 89%
    20:00 +12°C° 0 mm 4 m/S 750 mmHg 89%
    21:00 +10°C° 0 mm 5 m/S 750 mmHg 89%
    22:00 +11°C° 0 mm 4 m/S 750 mmHg 90%
    23:00 +10°C° 0 mm 4 m/S 749 mmHg 92%

    übermorgen, 4 Juni, Donnerstag

    Zeit Temperatur Niederschläge Wind Luftdruck Luftfeuchtigkeit
    00:00 +8°C° 0 mm 4 m/S 749 mmHg 93%
    01:00 +8°C° 0 mm 4 m/S 749 mmHg 94%
    02:00 +8°C° 0 mm 4 m/S 749 mmHg 94%
    03:00 +7°C° 0 mm 4 m/S 749 mmHg 95%
    04:00 +8°C° 0 mm 5 m/S 749 mmHg 94%
    05:00 +8°C° 0 mm 5 m/S 748 mmHg 93%
    06:00 +9°C° 0 mm 5 m/S 748 mmHg 92%
    07:00 +9°C° 0 mm 5 m/S 748 mmHg 89%
    08:00 +10°C° 0 mm 5 m/S 748 mmHg 86%
    09:00 +11°C° 0 mm 4 m/S 748 mmHg 83%
    10:00 +12°C° 0.1 mm 4 m/S 748 mmHg 77%
    11:00 +14°C° 0.1 mm 4 m/S 748 mmHg 70%
    12:00 +15°C° 0.1 mm 4 m/S 748 mmHg 64%
    13:00 +15°C° 0.2 mm 4 m/S 748 mmHg 67%
    14:00 +14°C° 0.2 mm 4 m/S 747 mmHg 70%
    15:00 +14°C° 0.2 mm 4 m/S 747 mmHg 72%
    16:00 +14°C° 0.3 mm 3 m/S 747 mmHg 75%
    17:00 +13°C° 0.3 mm 3 m/S 747 mmHg 78%
    18:00 +13°C° 0.3 mm 3 m/S 747 mmHg 81%
    19:00 +12°C° 0.1 mm 3 m/S 747 mmHg 85%
    20:00 +10°C° 0.1 mm 3 m/S 747 mmHg 88%
    21:00 +9°C° 0.1 mm 3 m/S 747 mmHg 92%
    22:00 +9°C° 0 mm 3 m/S 747 mmHg 93%
    23:00 +8°C° 0 mm 3 m/S 746 mmHg 94%

    5 Juni, Freitag

    Zeit Temperatur Niederschläge Wind Luftdruck Luftfeuchtigkeit
    00:00 +8°C° 0 mm 3 m/S 746 mmHg 95%
    01:00 +8°C° 0 mm 3 m/S 746 mmHg 95%
    02:00 +8°C° 0 mm 3 m/S 745 mmHg 95%
    03:00 +8°C° 0 mm 3 m/S 745 mmHg 95%
    04:00 +7°C° 0 mm 4 m/S 745 mmHg 93%
    05:00 +8°C° 0 mm 4 m/S 745 mmHg 90%
    06:00 +10°C° 0 mm 4 m/S 744 mmHg 87%
    07:00 +10°C° 0.1 mm 5 m/S 745 mmHg 81%
    08:00 +12°C° 0.1 mm 5 m/S 745 mmHg 75%
    09:00 +14°C° 0.1 mm 6 m/S 745 mmHg 70%
    10:00 +14°C° 0 mm 6 m/S 745 mmHg 69%
    11:00 +14°C° 0 mm 6 m/S 744 mmHg 68%
    12:00 +13°C° 0 mm 6 m/S 744 mmHg 67%
    13:00 +13°C° 0.1 mm 6 m/S 744 mmHg 71%
    14:00 +12°C° 0.1 mm 5 m/S 744 mmHg 76%
    15:00 +10°C° 0.1 mm 5 m/S 744 mmHg 81%
    16:00 +11°C° 0.2 mm 4 m/S 743 mmHg 85%
    17:00 +10°C° 0.2 mm 4 m/S 743 mmHg 89%
    18:00 +10°C° 0.2 mm 3 m/S 743 mmHg 93%
    19:00 +9°C° 0 mm 3 m/S 743 mmHg 94%
    20:00 +9°C° 0 mm 3 m/S 743 mmHg 95%
    21:00 +8°C° 0 mm 3 m/S 744 mmHg 96%
    22:00 +8°C° 0 mm 3 m/S 744 mmHg 95%
    23:00 +6°C° 0 mm 4 m/S 744 mmHg 94%

    6 Juni, Samstag

    Zeit Temperatur Niederschläge Wind Luftdruck Luftfeuchtigkeit
    00:00 +6°C° 0 mm 4 m/S 744 mmHg 94%
    01:00 +5°C° 0 mm 4 m/S 745 mmHg 93%
    02:00 +4°C° 0 mm 4 m/S 745 mmHg 91%
    03:00 +4°C° 0 mm 4 m/S 745 mmHg 90%
    04:00 +4°C° 0 mm 4 m/S 746 mmHg 88%
    05:00 +5°C° 0 mm 4 m/S 746 mmHg 87%
    06:00 +6°C° 0 mm 5 m/S 747 mmHg 85%
    07:00 +7°C° 0 mm 5 m/S 747 mmHg 78%
    08:00 +9°C° 0 mm 6 m/S 747 mmHg 70%
    09:00 +10°C° 0 mm 6 m/S 747 mmHg 63%
    10:00 +11°C° 0.1 mm 7 m/S 747 mmHg 60%
    11:00 +11°C° 0.1 mm 7 m/S 747 mmHg 57%
    12:00 +12°C° 0.1 mm 7 m/S 747 mmHg 53%
    13:00 +12°C° 0 mm 7 m/S 747 mmHg 53%
    14:00 +12°C° 0 mm 7 m/S 747 mmHg 53%
    15:00 +12°C° 0 mm 7 m/S 747 mmHg 53%
    16:00 +11°C° 0 mm 7 m/S 747 mmHg 55%
    17:00 +11°C° 0 mm 7 m/S 747 mmHg 58%
    18:00 +10°C° 0 mm 6 m/S 747 mmHg 60%
    19:00 +9°C° 0 mm 6 m/S 747 mmHg 66%
    20:00 +8°C° 0 mm 5 m/S 747 mmHg 72%
    21:00 +7°C° 0 mm 5 m/S 747 mmHg 77%
    22:00 +6°C° 0 mm 5 m/S 747 mmHg 80%
    23:00 +6°C° 0 mm 5 m/S 747 mmHg 83%

    7 Juni, Sonntag

    Zeit Temperatur Niederschläge Wind Luftdruck Luftfeuchtigkeit
    00:00 +6°C° 0 mm 5 m/S 747 mmHg 85%
    01:00 +6°C° 0 mm 5 m/S 746 mmHg 84%
    02:00 +6°C° 0 mm 5 m/S 746 mmHg 84%
    03:00 +5°C° 0 mm 5 m/S 746 mmHg 83%
    04:00 +5°C° 0 mm 6 m/S 746 mmHg 78%
    05:00 +8°C° 0 mm 6 m/S 745 mmHg 74%
    06:00 +9°C° 0 mm 7 m/S 745 mmHg 70%
    07:00 +9°C° 0.3 mm 7 m/S 745 mmHg 76%
    08:00 +9°C° 0.3 mm 8 m/S 745 mmHg 81%
    09:00 +9°C° 0.3 mm 8 m/S 745 mmHg 87%
    10:00 +10°C° 0.4 mm 8 m/S 745 mmHg 85%
    11:00 +11°C° 0.4 mm 8 m/S 745 mmHg 84%
    12:00 +12°C° 0.4 mm 8 m/S 745 mmHg 82%
    13:00 +13°C° 0.6 mm 8 m/S 745 mmHg 79%
    14:00 +13°C° 0.6 mm 8 m/S 745 mmHg 76%
    15:00 +15°C° 0.6 mm 8 m/S 745 mmHg 73%
    16:00 +14°C° 0.5 mm 7 m/S 745 mmHg 77%
    17:00 +14°C° 0.5 mm 6 m/S 745 mmHg 81%
    18:00 +13°C° 0.5 mm 6 m/S 745 mmHg 84%
    19:00 +12°C° 0.4 mm 5 m/S 746 mmHg 87%
    20:00 +11°C° 0.4 mm 4 m/S 746 mmHg 90%
    21:00 +10°C° 0.4 mm 4 m/S 746 mmHg 93%
    22:00 +10°C° 0.2 mm 4 m/S 747 mmHg 93%
    23:00 +9°C° 0.2 mm 3 m/S 747 mmHg 93%
    Mehr zeigen